CZ-3B DEB, 40184

Orbit data source: Space-Track

CZ-3B DEB, 40184 is space debris in HEO originally from a launch on Mon, 19 Dec 2011 UTC launched from the Xichang Space Center, China (XSC). Debris objects in space refer to the collection of defunct objects orbiting the Earth. Examples of debris include non-operational satellites, rocket bodies, and fragments generated from explosions, collisions, or faulty payload assembly.

Loading next visibility...
Identifier
40184, 2011-077H
Orbit
HEO
Country
Flag of CNCN / PRC
Related business
Manufacturer
CALT
Mission
Spacecraft
Bus & Motor
Unknown
Mass
Unknown
Launch date (UTC)
2011-12-19 (14 years ago)
Launch vehicle
Unknown
Launch site
Xichang Space Center, China (XSC)
Object type
Payload
Rocket body
Debris
Shape & HBR
Unknown shape, 0.4 m
Radar Cross Section
Medium (>0.1 m² and <1 m²)

Expand to show TLE details & history
Last TLE update: 17 hours ago

TLE from 17 hours ago
0 CZ-3B DEB
1 40184U 11077H   25290.55493785  .00001768  00000-0  73209-2 0  9992
2 40184  22.2825 273.1051 7516055 310.5408   4.9518  1.92098279 75319
Epoch: 2025-10-17T13:19Z
TLE epoch observation values (Epoch: 2025-10-17T13:19:06.630Z)
Latitude
-0.00037°
Longitude
46.93237°
Altitude
1,598.376 km
Speed
9.239 km/s
True Right ascension
18h 12m 02s
True Declination
0° 00' 01"
Sunlit
Object was in daylight at epoch
Visualization orbit readout
Latitude
Unknown
Longitude
Unknown
Altitude
Unknown
Speed
Unknown
Apparent Right ascension
Unknown
Apparent Declination
Unknown
Sunlit
N/A
Visualization observer readout
Local Sidereal Time
01:11:45
Azimuth
Unknown
Elevation
Unknown
Doppler factor
Unknown
Orbital elements
Apogee altitude
41,509.792 km
Perigee altitude
412.832 km
Semi-major axis
27,339.449 km
Eccentricity
0.75161
Inclination
22.2825°
RAAN
273.1051°
Arg. of periapsis
310.5408°
True anomaly
47.69788°
Mean anomaly
4.9518°
Eccentric anomaly
18.90319°
Mean motion
0.48013 °/min
Orbital period
749.8 mins
BSTAR
0.0073209
Loading maneuver chart data...
Computing Atmospheric mass density...
Loading historical data...
Loading historical data...
Loading historical data...
Loading historical data...
Loading historical data...
Loading historical data...
Loading historical data...

Documentation

Showing up to 5 results
|